This is the latest recevied weather packets stored in our database for station/object W3JBS-2. If no packets are shown the sender has not sent any weather packets the latest 1 day(s).
| Time | Temp. | Humidity | Pressure | Rain* | Wind** | Luminosity | Snow |
|---|---|---|---|---|---|---|---|
| 1778090822 | 16.67° C | 84% | 1007.5 hPa | 0 mm | - | 1749 W/m² | - |
| 1778089022 | 16.67° C | 84% | 1007.7 hPa | 0 mm | - | 1754 W/m² | - |
| 1778087222 | 16.67° C | 84% | 1007.8 hPa | 0.25 mm | - | 1758 W/m² | - |
| 1778085422 | 16.67° C | 85% | 1007.8 hPa | 1.27 mm | - | 1763 W/m² | - |
| 1778083622 | 16.11° C | 84% | 1008.3 hPa | 1.78 mm | - | 1768 W/m² | - |
| 1778080022 | 17.22° C | 79% | 1008.8 hPa | 0.76 mm | - | 1775 W/m² | - |
| 1778078222 | 17.22° C | 76% | 1008.9 hPa | 0.25 mm | - | 1775 W/m² | - |
| 1778076422 | 18.33° C | 70% | 1008.9 hPa | 0 mm | - | 1775 W/m² | - |
| 1778074622 | 18.89° C | 68% | 1008.6 hPa | 0 mm | - | 1775 W/m² | - |
| 1778066522 | 17.78° C | 72% | 1008.6 hPa | 0 mm | - | 1775 W/m² | - |
| 1778062922 | 17.78° C | 73% | 1008.5 hPa | 0 mm | - | 1775 W/m² | - |
| 1778062021 | 17.78° C | 73% | 1008.3 hPa | 0 mm | - | 1775 W/m² | - |
| 1778061122 | 17.78° C | 73% | 1008.3 hPa | 0 mm | - | 1777 W/m² | - |
| 1778060222 | 17.78° C | 72% | 1008.4 hPa | 0 mm | - | 1777 W/m² | - |
| 1778059322 | 17.78° C | 72% | 1008.4 hPa | 0 mm | - | 1777 W/m² | - |
| 1778057522 | 18.33° C | 71% | 1008.4 hPa | 0 mm | - | 1777 W/m² | - |
| 1778054822 | 18.33° C | 70% | 1008.6 hPa | 0 mm | - | 1777 W/m² | - |
| 1778053022 | 18.89° C | 70% | 1008.6 hPa | 0 mm | - | 1777 W/m² | - |
| 1778051222 | 18.89° C | 69% | 1008.7 hPa | 0 mm | - | 1779 W/m² | - |
| 1778049422 | 18.89° C | 68% | 1008.9 hPa | 0 mm | - | 1779 W/m² | - |
| 1778048521 | 18.89° C | 68% | 1009 hPa | 0 mm | - | 1779 W/m² | - |
| 1778047622 | 18.89° C | 68% | 1009 hPa | 0 mm | - | 1779 W/m² | - |
| 1778046722 | 18.33° C | 68% | 1009.1 hPa | 0 mm | - | 1779 W/m² | - |
| 1778044922 | 18.33° C | 67% | 1009.3 hPa | 0 mm | - | 1781 W/m² | - |
| 1778043122 | 18.33° C | 67% | 1009.5 hPa | 0 mm | - | 1781 W/m² | - |
* Rain latest hour (hover to see other rain measurements)
** Current wind speed in m/s (hover to see current wind gust speed)